Flag for U.S.A. Weather past 2 weeks in Topeka, Kansas, U.S.A.

Now
55 °F

Fog.


Feels Like: 55 °F
Forecast: 53 / 81 °F
Wind: 3 mph from Southwest

Location: Philip Billard Municipal Airport

Current Time: Oct 25, 2014 at 4:28:10 AM

Latest Report: Oct 25, 2014 at 3:58 AM


Visibility: 0 mi

Pressure: 30.01 "Hg

Humidity: 100%

Dew point: 55 °F

Location of TopekaLocation

Historic Weather in Topeka — Graph

°F

Topeka temperature yesterday

Maximum temperature yesterday: 79 °F (at 3:53 PM)
Minimum temperature yesterday: 58 °F (at 5:53 AM)
Average temperature yesterday: 66 °F

Past Weeks' High & Low Weather Summary

 TemperatureHumidityPressure
High80 °F (Oct 16, 3:53 PM)100% (Oct 13, 3:53 AM)32.00 "Hg (Oct 13, 3:53 AM)
Low38 °F (Oct 21, 7:02 AM)30% (Oct 21, 2:53 PM)29.57 "Hg (Oct 13, 2:53 PM)
Average57 °F74%30.01 "Hg
* Reported Oct 10 2:02 AM — Oct 25 2:53 AM, Topeka, Weather by CustomWeather, © 2014

Note: Actual official high and low records may vary slightly from our data, if they occured in-between our weather recording intervals... More about our weather records

Advertising

Topeka weather history for previous 24 hours

 ConditionsComfort  
Time TempWeatherWind HumidityBarometerVisibility
2:53 AM
Oct 25
57 °FFog.No wind100%30.01 "Hg0 mi
2:04 AM56 °FFog.3 mph100%30.01 "Hg1 mi
2:00 AM58 °FFog.No wind100%30.01 "Hg2 mi
12:56 AM57 °FFog.3 mph96%30.00 "Hg1 mi
11:53 PM
Oct 24
59 °FClear.No wind96%29.99 "Hg7 mi
10:53 PM61 °FFog.No wind100%29.97 "Hg6 mi
9:53 PM63 °FClear.No wind90%29.96 "Hg10 mi
8:53 PM64 °FClear.No wind87%29.95 "Hg10 mi
7:53 PM71 °FClear.No wind76%29.93 "Hg10 mi
6:53 PM74 °FSunny.3 mph69%29.91 "Hg10 mi
5:53 PM78 °FSunny.7 mph60%29.91 "Hg10 mi
4:53 PM79 °FSunny.12 mph58%29.91 "Hg10 mi
3:53 PM79 °FSunny.13 mph60%29.92 "Hg10 mi
2:53 PM77 °FSunny.7 mph66%29.94 "Hg10 mi
1:53 PM75 °FSunny.9 mph66%29.96 "Hg10 mi
12:53 PM72 °FSunny.8 mph73%29.99 "Hg10 mi
11:53 AM69 °FSunny.7 mph79%30.01 "Hg10 mi
10:53 AM65 °FSunny.8 mph87%30.03 "Hg9 mi
9:53 AM63 °FFog.8 mph90%30.02 "Hg6 mi
8:53 AM60 °FFog.6 mph96%30.03 "Hg4 mi
7:53 AM59 °FFog.5 mph96%30.02 "Hg4 mi
6:53 AM58 °FFog.3 mph97%30.02 "Hg5 mi
5:53 AM58 °FFog.No wind97%30.03 "Hg4 mi
4:53 AM59 °FFog.6 mph96%30.02 "Hg4 mi
Weather by CustomWeather, © 2014

See weather overviewHow to use our weather pages